Regional Weather Roundup
Issued by NWS

Home | Current Version | Previous Version | Text Only | Print | Product List | Glossary Off
Versions: 1 2 3 4 5 6 7 8 9 10 11 12 13 14 15 16 17 18 19 20 21 22 23 24 25 26 27 28 29 30 31 32 33 34 35 36 37 38 39 40 41 42 43 44 45 46 47 48 49 50

000
ASUS43 KLMK 041610
RWRKY
KENTUCKY REGIONAL WEATHER ROUNDUP
NATIONAL WEATHER SERVICE LOUISVILLE KY
1200 PM EDT TUE AUG 04 2015

NOTE "FAIR" INDICATES FEW OR NO CLOUDS BELOW 12,000 FEET
WITH NO SIGNIFICANT WEATHER AND/OR OBSTRUCTIONS TO VISIBILITY.

KYZ001>023-026-027-061>063-070>075-041700-
WESTERN AND SOUTH CENTRAL KENTUCKY

CITY           SKY/WX    TMP DP  RH WIND       PRES   REMARKS
PADUCAH        MOSUNNY   90  75  61 W3        29.99R HX 100
HENDERSON      PTSUNNY   84  72  65 N5        29.98F
OWENSBORO      MOSUNNY   87  73  62 S5        30.00F HX  94
HOPKINSVILLE   SUNNY     90  73  58 SW8       30.00F HX  97
BOWLING GREEN  CLOUDY    87  73  62 S12       30.01S HX  94
GLASGOW        PTSUNNY  N/A N/A N/A SW8       30.02S
$$

KYZ024-025-028>034-038-045-046-053-041700-
NORTH CENTRAL KENTUCKY

CITY           SKY/WX    TMP DP  RH WIND       PRES   REMARKS
LOUISVILLE/SDF CLOUDY    85  67  54 W8        30.00R
LOUISVILLE/LOU CLOUDY    83  68  60 SW7       30.00R
FORT KNOX      CLOUDY    84  70  63 W5        30.01R
$$

KYZ035>037-039>044-047>052-055>060-089>105-041700-
NORTHEAST KENTUCKY

CITY           SKY/WX    TMP DP  RH WIND       PRES   REMARKS
LEXINGTON      PTSUNNY   80  70  71 SW7       30.02S
COVINGTON      PTSUNNY   80  64  58 W10       30.00S
FRANKFORT      CLOUDY    81  68  64 SW8       30.00S
$$

KYZ054-064>069-076>088-106>120-041700-
SOUTHEAST KENTUCKY

CITY           SKY/WX    TMP DP  RH WIND       PRES   REMARKS
JACKSON        MOSUNNY   81  72  74 VRB3      30.05R
LONDON         MOSUNNY   85  68  56 SW7       30.05S
SOMERSET       CLOUDY    82  70  65 W8        30.05S
MIDDLESBORO    SUNNY     85  71  63 CALM      30.06S HX  90
MONTICELLO     MOSUNNY   87  75  67 W3        30.07S HX  96
$$




USA.gov is the U.S. government's official web portal to all federal, state and local government web resources and services.